QPF
0.01 0.02 0.03 0.03 0.04 0.08 0.09 0.07 0.06 0.04 0.06 0.08 0.09 0.11 0.11 0.08 0.03 0.01 0.00 0.00 0.00 0.00 0.00 0.00 0.00 0.00 0.00 0.01 0.02 0.01 0.01 0.01 0.01 0.00 0.00 0.00 0.00 0.00 0.00 0.00 0.00 0.00 0.00 0.00
0.02 0.06 0.07 0.06 0.05 0.07 0.08 0.07 0.08 0.07 0.06 0.02 0.01 0.02 0.04 0.04 0.03 0.01 0.00 0.00 0.00 0.00 0.00 0.00 0.00 0.00 0.01 0.01 0.01 0.01 0.01 0.01 0.01 0.01 0.01 0.00 0.00 0.00 0.00 0.00 0.00 0.00 0.00 0.00
0.03 0.05 0.08 0.08 0.06 0.06 0.05 0.04 0.06 0.08 0.06 0.01 0.02 0.05 0.06 0.03 0.01 0.01 0.00 0.00 0.00 0.00 0.00 0.00 0.00 0.00 0.02 0.02 0.01 0.01 0.01 0.01 0.01 0.01 0.01 0.01 0.00 0.00 0.00 0.00 0.00 0.00 0.00 0.00
0.06 0.07 0.07 0.05 0.01 0.01 0.03 0.02 0.01 0.04 0.04 0.03 0.04 0.04 0.03 0.02 0.01 0.01 0.00 0.00 0.00 0.00 0.01 0.01 0.00 0.01 0.02 0.03 0.03 0.03 0.02 0.01 0.02 0.03 0.03 0.02 0.01 0.00 0.00 0.00 0.00 0.00 0.00 0.00
0.03 0.04 0.03 0.01 0.00 0.00 0.02 0.02 0.00 0.01 0.02 0.01 0.01 0.00 0.00 0.00 0.00 0.00 0.00 0.00 0.00 0.01 0.01 0.01 0.01 0.01 0.03 0.05 0.05 0.05 0.03 0.03 0.03 0.05 0.08 0.08 0.04 0.01 0.01 0.00 0.00 0.00 0.00 0.00
0.01 0.02 0.01 0.01 0.00 0.00 0.01 0.01 0.00 0.00 0.00 0.00 0.00 0.01 0.01 0.00 0.00 0.00 0.00 0.00 0.00 0.01 0.02 0.02 0.01 0.02 0.03 0.04 0.05 0.05 0.04 0.04 0.03 0.03 0.04 0.05 0.05 0.04 0.02 0.01 0.00 0.00 0.00 0.00
0.00 0.00 0.00 0.00 0.00 0.01 0.03 0.02 0.00 0.00 0.00 0.00 0.00 0.00 0.00 0.00 0.00 0.00 0.00 0.00 0.01 0.02 0.02 0.02 0.02 0.02 0.04 0.06 0.08 0.06 0.03 0.02 0.02 0.02 0.01 0.02 0.03 0.06 0.05 0.03 0.02 0.01 0.01 0.01
0.00 0.00 0.00 0.00 0.00 0.01 0.01 0.00 0.00 0.00 0.00 0.00 0.00 0.00 0.00 0.00 0.00 0.00 0.00 0.00 0.01 0.03 0.04 0.03 0.03 0.03 0.04 0.05 0.08 0.06 0.03 0.02 0.01 0.02 0.02 0.01 0.04 0.07 0.09 0.07 0.03 0.04 0.03 0.02
0.00 0.00 0.00 0.00 0.00 0.00 0.00 0.00 0.00 0.00 0.00 0.00 0.00 0.00 0.00 0.00 0.00 0.00 0.00 0.01 0.01 0.03 0.03 0.05 0.08 0.06 0.04 0.04 0.04 0.06 0.06 0.06 0.04 0.03 0.03 0.02 0.02 0.03 0.04 0.04 0.02 0.02 0.02 0.02
0.00 0.00 0.00 0.00 0.00 0.00 0.00 0.00 0.00 0.00 0.00 0.00 0.00 0.00 0.00 0.00 0.00 0.00 0.00 0.01 0.02 0.03 0.04 0.05 0.09 0.09 0.04 0.03 0.03 0.04 0.09 0.14 0.14 0.11 0.08 0.04 0.03 0.03 0.04 0.03 0.02 0.02 0.02 0.02
0.00 0.00 0.00 0.00 0.00 0.00 0.00 0.00 0.00 0.00 0.00 0.00 0.00 0.00 0.00 0.00 0.00 0.00 0.00 0.00 0.01 0.02 0.03 0.03 0.04 0.07 0.06 0.03 0.03 0.03 0.05 0.06 0.08 0.11 0.15 0.13 0.10 0.09 0.09 0.09 0.08 0.09 0.10 0.08
0.00 0.00 0.00 0.00 0.00 0.00 0.00 0.00 0.00 0.00 0.00 0.00 0.00 0.00 0.00 0.00 0.00 0.00 0.00 0.00 0.00 0.01 0.01 0.02 0.03 0.03 0.03 0.04 0.05 0.05 0.04 0.05 0.07 0.09 0.10 0.10 0.09 0.09 0.10 0.11 0.10 0.11 0.11 0.10
0.00 0.00 0.00 0.00 0.00 0.00 0.00 0.00 0.00 0.00 0.00 0.00 0.00 0.00 0.00 0.00 0.00 0.00 0.00 0.00 0.00 0.00 0.00 0.01 0.01 0.01 0.02 0.02 0.03 0.03 0.02 0.02 0.05 0.07 0.06 0.06 0.08 0.08 0.07 0.04 0.02 0.02 0.02 0.02
0.00 0.00 0.00 0.00 0.00 0.00 0.00 0.00 0.00 0.00 0.00 0.00 0.00 0.00 0.00 0.00 0.00 0.00 0.00 0.00 0.00 0.00 0.00 0.00 0.00 0.00 0.00 0.00 0.01 0.01 0.00 0.00 0.01 0.02 0.01 0.01 0.01 0.01 0.01 0.00 0.00 0.00 0.00 0.00
0.00 0.00 0.00 0.00 0.00 0.00 0.00 0.00 0.00 0.00 0.00 0.00 0.00 0.00 0.00 0.00 0.00 0.00 0.00 0.00 0.00 0.00 0.00 0.00 0.00 0.00 0.00 0.00 0.00 0.00 0.00 0.00 0.00 0.00 0.00 0.00 0.00 0.00 0.00 0.00 0.00 0.00 0.00 0.00
0.00 0.00 0.00 0.00 0.00 0.00 0.00 0.00 0.00 0.00 0.00 0.00 0.00 0.00 0.00 0.00 0.00 0.00 0.00 0.00 0.00 0.00 0.00 0.00 0.00 0.00 0.00 0.00 0.00 0.00 0.00 0.00 0.00 0.00 0.00 0.00 0.00 0.00 0.00 0.00 0.00 0.00 0.00 0.00
0.00 0.00 0.00 0.00 0.00 0.00 0.00 0.00 0.00 0.00 0.00 0.00 0.00 0.00 0.00 0.00 0.00 0.00 0.00 0.00 0.00 0.00 0.00 0.00 0.00 0.00 0.00 0.00 0.00 0.00 0.00 0.00 0.00 0.00 0.00 0.00 0.00 0.00 0.00 0.00 0.00 0.00 0.00 0.00
0.00 0.00 0.00 0.00 0.00 0.00 0.00 0.00 0.00 0.00 0.00 0.00 0.00 0.00 0.00 0.00 0.00 0.00 0.00 0.00 0.00 0.00 0.00 0.00 0.00 0.00 0.00 0.00 0.00 0.00 0.00 0.00 0.00 0.00 0.00 0.00 0.00 0.00 0.00 0.00 0.00 0.00 0.00 0.00
0.00 0.00 0.00 0.00 0.00 0.00 0.00 0.00 0.00 0.00 0.00 0.00 0.00 0.00 0.00 0.00 0.00 0.00 0.00 0.00 0.00 0.00 0.00 0.00 0.00 0.00 0.00 0.00 0.00 0.00 0.00 0.00 0.00 0.00 0.00 0.00 0.00 0.00 0.00 0.00 0.00 0.00 0.00 0.00
0.00 0.00 0.00 0.00 0.00 0.00 0.00 0.00 0.00 0.00 0.00 0.00 0.00 0.00 0.00 0.00 0.00 0.00 0.00 0.00 0.00 0.00 0.00 0.00 0.00 0.00 0.00 0.00 0.00 0.00 0.00 0.00 0.00 0.00 0.00 0.00 0.00 0.00 0.00 0.00 0.00 0.00 0.00 0.00
0.00 0.00 0.00 0.00 0.00 0.00 0.00 0.00 0.00 0.00 0.00 0.00 0.00 0.00 0.00 0.00 0.00 0.00 0.00 0.00 0.00 0.00 0.00 0.00 0.00 0.00 0.00 0.00 0.00 0.00 0.00 0.00 0.00 0.00 0.00 0.00 0.00 0.00 0.00 0.00 0.00 0.00 0.00 0.00
0.00 0.00 0.00 0.00 0.00 0.00 0.00 0.00 0.00 0.00 0.00 0.00 0.00 0.00 0.00 0.00 0.00 0.00 0.00 0.00 0.00 0.00 0.00 0.00 0.00 0.00 0.00 0.00 0.00 0.00 0.00 0.00 0.01 0.01 0.00 0.00 0.00 0.00 0.00 0.00 0.00 0.00 0.00 0.00
0.00 0.00 0.00 0.00 0.00 0.00 0.00 0.00 0.00 0.00 0.00 0.00 0.00 0.00 0.00 0.00 0.00 0.00 0.00 0.00 0.00 0.00 0.00 0.00 0.00 0.00 0.00 0.00 0.00 0.00 0.01 0.01 0.01 0.00 0.00 0.00 0.01 0.01 0.01 0.01 0.00 0.00 0.00 0.00
0.00 0.00 0.00 0.00 0.00 0.00 0.00 0.00 0.00 0.00 0.00 0.00 0.00 0.00 0.00 0.00 0.00 0.00 0.00 0.00 0.00 0.00 0.00 0.00 0.00 0.00 0.00 0.00 0.00 0.00 0.00 0.00 0.01 0.01 0.01 0.02 0.01 0.01 0.01 0.00 0.00 0.00 0.00 0.00
0.00 0.00 0.00 0.00 0.00 0.00 0.00 0.00 0.00 0.00 0.00 0.00 0.00 0.00 0.00 0.00 0.00 0.00 0.00 0.00 0.00 0.00 0.00 0.00 0.00 0.00 0.00 0.00 0.00 0.00 0.00 0.01 0.01 0.01 0.01 0.01 0.01 0.00 0.00 0.00 0.00 0.00 0.00 0.00
0.01 0.01 0.01 0.01 0.01 0.00 0.00 0.00 0.00 0.00 0.00 0.00 0.00 0.00 0.00 0.00 0.00 0.00 0.00 0.00 0.00 0.00 0.00 0.00 0.00 0.00 0.00 0.00 0.00 0.00 0.00 0.00 0.00 0.00 0.00 0.00 0.00 0.00 0.00 0.00 0.00 0.00 0.00 0.00
0.02 0.02 0.03 0.02 0.02 0.01 0.01 0.01 0.01 0.00 0.00 0.00 0.00 0.00 0.00 0.00 0.00 0.00 0.00 0.00 0.00 0.00 0.00 0.00 0.00 0.00 0.00 0.00 0.00 0.00 0.00 0.00 0.00 0.00 0.00 0.00 0.00 0.00 0.00 0.00 0.00 0.00 0.00 0.00
MSLP
1013.70 1013.66 1013.57 1013.44 1013.30 1013.19 1013.15 1013.20 1013.35 1013.63 1014.01 1014.48 1015.00 1015.52 1015.99 1016.38 1016.64 1016.77 1016.77 1016.64 1016.43 1016.16 1015.89 1015.64 1015.43 1015.27 1015.16 1015.10 1015.05 1015.00 1014.93 1014.84 1014.74 1014.62 1014.51 1014.41 1014.34 1014.29 1014.26 1014.24 1014.22 1014.18 1014.12 1014.03
1013.97 1013.89 1013.73 1013.51 1013.28 1013.09 1012.97 1012.96 1013.09 1013.37 1013.78 1014.30 1014.87 1015.46 1015.98 1016.41 1016.71 1016.85 1016.84 1016.71 1016.48 1016.21 1015.94 1015.69 1015.51 1015.38 1015.31 1015.29 1015.28 1015.26 1015.23 1015.16 1015.07 1014.96 1014.84 1014.72 1014.63 1014.56 1014.51 1014.47 1014.44 1014.40 1014.34 1014.27
1014.15 1014.07 1013.88 1013.62 1013.33 1013.07 1012.89 1012.83 1012.92 1013.17 1013.58 1014.10 1014.69 1015.29 1015.84 1016.29 1016.59 1016.74 1016.74 1016.62 1016.40 1016.15 1015.90 1015.70 1015.55 1015.47 1015.45 1015.47 1015.51 1015.53 1015.53 1015.49 1015.41 1015.31 1015.18 1015.06 1014.95 1014.85 1014.78 1014.72 1014.66 1014.61 1014.55 1014.50
1014.22 1014.15 1013.96 1013.70 1013.39 1013.11 1012.89 1012.78 1012.83 1013.05 1013.41 1013.90 1014.47 1015.05 1015.59 1016.03 1016.34 1016.50 1016.52 1016.42 1016.24 1016.02 1015.82 1015.67 1015.58 1015.55 1015.59 1015.66 1015.75 1015.82 1015.85 1015.84 1015.77 1015.68 1015.55 1015.42 1015.29 1015.18 1015.08 1015.00 1014.92 1014.86 1014.80 1014.74
1014.12 1014.08 1013.93 1013.69 1013.40 1013.12 1012.89 1012.77 1012.78 1012.95 1013.27 1013.71 1014.23 1014.77 1015.27 1015.69 1015.99 1016.17 1016.21 1016.15 1016.02 1015.87 1015.74 1015.65 1015.62 1015.66 1015.75 1015.87 1016.00 1016.10 1016.17 1016.18 1016.14 1016.05 1015.93 1015.80 1015.67 1015.54 1015.43 1015.34 1015.25 1015.18 1015.10 1015.04
1013.86 1013.84 1013.73 1013.53 1013.29 1013.05 1012.84 1012.72 1012.72 1012.85 1013.12 1013.51 1013.97 1014.45 1014.92 1015.31 1015.61 1015.80 1015.88 1015.87 1015.81 1015.73 1015.67 1015.65 1015.69 1015.79 1015.93 1016.09 1016.26 1016.39 1016.47 1016.50 1016.48 1016.41 1016.30 1016.18 1016.06 1015.94 1015.84 1015.75 1015.67 1015.59 1015.51 1015.44
1013.42 1013.42 1013.35 1013.22 1013.04 1012.85 1012.69 1012.60 1012.60 1012.72 1012.96 1013.29 1013.70 1014.14 1014.56 1014.93 1015.23 1015.44 1015.57 1015.62 1015.63 1015.63 1015.65 1015.70 1015.80 1015.95 1016.13 1016.32 1016.50 1016.64 1016.74 1016.78 1016.78 1016.72 1016.64 1016.54 1016.44 1016.35 1016.28 1016.21 1016.15 1016.09 1016.03 1015.96
1012.84 1012.85 1012.81 1012.73 1012.63 1012.51 1012.42 1012.38 1012.41 1012.54 1012.76 1013.06 1013.43 1013.83 1014.22 1014.58 1014.88 1015.12 1015.29 1015.41 1015.49 1015.57 1015.66 1015.78 1015.93 1016.11 1016.31 1016.52 1016.70 1016.84 1016.94 1016.99 1016.98 1016.95 1016.89 1016.83 1016.77 1016.73 1016.70 1016.69 1016.67 1016.65 1016.62 1016.57
1012.15 1012.15 1012.13 1012.11 1012.08 1012.05 1012.04 1012.07 1012.15 1012.31 1012.53 1012.83 1013.17 1013.55 1013.92 1014.27 1014.58 1014.85 1015.06 1015.24 1015.39 1015.53 1015.69 1015.85 1016.04 1016.25 1016.46 1016.66 1016.82 1016.95 1017.04 1017.08 1017.08 1017.06 1017.03 1017.01 1017.00 1017.02 1017.06 1017.11 1017.16 1017.20 1017.22 1017.20
1011.36 1011.35 1011.36 1011.39 1011.43 1011.49 1011.57 1011.68 1011.83 1012.04 1012.29 1012.59 1012.93 1013.29 1013.66 1014.01 1014.33 1014.62 1014.87 1015.09 1015.30 1015.50 1015.69 1015.90 1016.11 1016.32 1016.52 1016.71 1016.85 1016.96 1017.02 1017.04 1017.04 1017.03 1017.03 1017.04 1017.09 1017.17 1017.28 1017.41 1017.54 1017.65 1017.73 1017.76
1010.49 1010.47 1010.51 1010.60 1010.72 1010.86 1011.04 1011.24 1011.47 1011.73 1012.03 1012.35 1012.70 1013.06 1013.43 1013.78 1014.11 1014.41 1014.69 1014.95 1015.19 1015.42 1015.65 1015.88 1016.10 1016.31 1016.49 1016.65 1016.77 1016.84 1016.88 1016.88 1016.87 1016.87 1016.88 1016.93 1017.02 1017.16 1017.34 1017.54 1017.74 1017.93 1018.07 1018.15
1009.55 1009.54 1009.61 1009.75 1009.95 1010.18 1010.45 1010.74 1011.05 1011.38 1011.73 1012.09 1012.46 1012.83 1013.20 1013.55 1013.89 1014.21 1014.50 1014.78 1015.04 1015.29 1015.53 1015.76 1015.98 1016.18 1016.35 1016.48 1016.57 1016.62 1016.63 1016.62 1016.60 1016.59 1016.61 1016.68 1016.80 1016.99 1017.21 1017.47 1017.73 1017.98 1018.18 1018.31
1008.54 1008.55 1008.66 1008.86 1009.13 1009.45 1009.80 1010.17 1010.56 1010.96 1011.36 1011.76 1012.16 1012.55 1012.93 1013.29 1013.64 1013.96 1014.26 1014.54 1014.81 1015.07 1015.32 1015.55 1015.76 1015.95 1016.10 1016.22 1016.29 1016.32 1016.31 1016.29 1016.26 1016.25 1016.27 1016.35 1016.49 1016.69 1016.94 1017.23 1017.53 1017.81 1018.05 1018.22
1007.48 1007.53 1007.69 1007.94 1008.26 1008.64 1009.06 1009.51 1009.96 1010.42 1010.88 1011.33 1011.77 1012.18 1012.58 1012.96 1013.31 1013.63 1013.94 1014.22 1014.49 1014.75 1015.00 1015.23 1015.44 1015.62 1015.77 1015.88 1015.95 1015.97 1015.97 1015.94 1015.91 1015.89 1015.92 1015.99 1016.13 1016.33 1016.58 1016.87 1017.18 1017.48 1017.73 1017.92
1006.43 1006.51 1006.69 1006.98 1007.34 1007.77 1008.23 1008.73 1009.24 1009.75 1010.26 1010.75 1011.23 1011.68 1012.10 1012.50 1012.86 1013.20 1013.51 1013.79 1014.06 1014.32 1014.57 1014.80 1015.01 1015.21 1015.37 1015.49 1015.57 1015.61 1015.62 1015.61 1015.59 1015.58 1015.60 1015.66 1015.79 1015.97 1016.20 1016.47 1016.77 1017.05 1017.30 1017.50
1005.43 1005.52 1005.72 1006.02 1006.39 1006.83 1007.31 1007.83 1008.37 1008.92 1009.46 1010.00 1010.52 1011.01 1011.47 1011.89 1012.28 1012.63 1012.95 1013.25 1013.52 1013.78 1014.03 1014.27 1014.50 1014.71 1014.90 1015.05 1015.17 1015.24 1015.29 1015.30 1015.31 1015.31 1015.33 1015.39 1015.50 1015.66 1015.86 1016.10 1016.36 1016.61 1016.85 1017.03
1004.55 1004.64 1004.83 1005.10 1005.44 1005.86 1006.33 1006.84 1007.38 1007.95 1008.52 1009.09 1009.65 1010.18 1010.68 1011.13 1011.55 1011.92 1012.26 1012.57 1012.86 1013.13 1013.39 1013.65 1013.90 1014.14 1014.36 1014.56 1014.73 1014.85 1014.95 1015.01 1015.05 1015.09 1015.12 1015.18 1015.28 1015.41 1015.57 1015.78 1016.00 1016.22 1016.42 1016.59
1003.86 1003.92 1004.06 1004.27 1004.56 1004.91 1005.33 1005.80 1006.32 1006.88 1007.46 1008.06 1008.64 1009.21 1009.74 1010.24 1010.69 1011.09 1011.45 1011.77 1012.08 1012.36 1012.64 1012.92 1013.20 1013.48 1013.75 1014.00 1014.22 1014.42 1014.57 1014.69 1014.79 1014.86 1014.92 1014.99 1015.08 1015.19 1015.33 1015.50 1015.68 1015.87 1016.05 1016.21
1003.40 1003.40 1003.46 1003.59 1003.79 1004.06 1004.39 1004.80 1005.27 1005.80 1006.37 1006.96 1007.56 1008.15 1008.72 1009.24 1009.72 1010.14 1010.52 1010.87 1011.18 1011.49 1011.79 1012.09 1012.40 1012.72 1013.04 1013.34 1013.63 1013.89 1014.11 1014.30 1014.45 1014.56 1014.66 1014.75 1014.85 1014.96 1015.08 1015.23 1015.39 1015.56 1015.73 1015.87
1003.15 1003.08 1003.06 1003.09 1003.18 1003.34 1003.58 1003.90 1004.30 1004.77 1005.31 1005.88 1006.48 1007.08 1007.65 1008.19 1008.68 1009.12 1009.51 1009.87 1010.20 1010.51 1010.83 1011.16 1011.50 1011.86 1012.22 1012.58 1012.93 1013.25 1013.54 1013.78 1013.99 1014.15 1014.29 1014.40 1014.51 1014.63 1014.76 1014.90 1015.05 1015.22 1015.38 1015.54
1003.08 1002.94 1002.83 1002.75 1002.73 1002.78 1002.92 1003.14 1003.46 1003.87 1004.35 1004.89 1005.46 1006.03 1006.60 1007.13 1007.61 1008.05 1008.44 1008.80 1009.13 1009.46 1009.79 1010.14 1010.51 1010.90 1011.30 1011.71 1012.11 1012.49 1012.83 1013.13 1013.38 1013.59 1013.76 1013.90 1014.04 1014.17 1014.30 1014.45 1014.62 1014.80 1014.98 1015.15
1003.09 1002.89 1002.70 1002.54 1002.42 1002.38 1002.41 1002.55 1002.79 1003.12 1003.53 1004.02 1004.54 1005.07 1005.60 1006.10 1006.56 1006.98 1007.35 1007.70 1008.03 1008.36 1008.70 1009.06 1009.45 1009.87 1010.31 1010.76 1011.20 1011.62 1012.01 1012.34 1012.63 1012.88 1013.08 1013.25 1013.40 1013.55 1013.71 1013.88 1014.06 1014.27 1014.47 1014.68
1003.09 1002.86 1002.62 1002.39 1002.20 1002.08 1002.04 1002.10 1002.26 1002.52 1002.86 1003.28 1003.74 1004.21 1004.68 1005.13 1005.55 1005.93 1006.27 1006.60 1006.91 1007.24 1007.58 1007.96 1008.37 1008.82 1009.29 1009.77 1010.25 1010.70 1011.11 1011.48 1011.80 1012.06 1012.28 1012.47 1012.65 1012.82 1012.99 1013.19 1013.41 1013.64 1013.89 1014.14
1003.00 1002.75 1002.49 1002.23 1002.00 1001.83 1001.74 1001.74 1001.85 1002.04 1002.32 1002.67 1003.05 1003.46 1003.86 1004.25 1004.60 1004.93 1005.24 1005.53 1005.83 1006.14 1006.49 1006.88 1007.32 1007.79 1008.29 1008.80 1009.30 1009.78 1010.22 1010.61 1010.94 1011.22 1011.46 1011.66 1011.85 1012.03 1012.23 1012.46 1012.71 1012.98 1013.27 1013.57
1002.76 1002.52 1002.25 1001.99 1001.75 1001.57 1001.46 1001.43 1001.49 1001.64 1001.87 1002.15 1002.47 1002.81 1003.14 1003.45 1003.74 1004.01 1004.27 1004.54 1004.81 1005.12 1005.48 1005.88 1006.34 1006.83 1007.36 1007.90 1008.43 1008.94 1009.40 1009.80 1010.15 1010.44 1010.68 1010.89 1011.09 1011.29 1011.51 1011.76 1012.04 1012.35 1012.69 1013.03
1002.35 1002.12 1001.87 1001.62 1001.40 1001.23 1001.13 1001.10 1001.15 1001.28 1001.47 1001.70 1001.96 1002.23 1002.50 1002.75 1002.98 1003.19 1003.41 1003.64 1003.90 1004.21 1004.57 1005.00 1005.48 1006.00 1006.56 1007.13 1007.69 1008.22 1008.70 1009.12 1009.48 1009.78 1010.03 1010.25 1010.46 1010.67 1010.91 1011.19 1011.50 1011.85 1012.22 1012.61
1001.77 1001.56 1001.33 1001.11 1000.93 1000.79 1000.71 1000.70 1000.77 1000.89 1001.07 1001.28 1001.50 1001.72 1001.93 1002.13 1002.31 1002.49 1002.67 1002.88 1003.13 1003.44 1003.81 1004.26 1004.76 1005.32 1005.91 1006.51 1007.10 1007.66 1008.16 1008.60 1008.97 1009.29 1009.55 1009.79 1010.01 1010.24 1010.50 1010.80 1011.13 1011.51 1011.92 1012.35
Thickness
5631 5628 5621 5616 5617 5621 5621 5623 5619 5628 5633 5628 5617 5610 5603 5600 5601 5605 5608 5611 5612 5615 5617 5621 5626 5629 5632 5635 5637 5638 5639 5640 5642 5645 5646 5646 5645 5645 5646 5647 5649 5650 5652 5654
5619 5621 5616 5613 5615 5613 5613 5615 5617 5620 5614 5611 5604 5599 5595 5593 5594 5598 5603 5606 5609 5611 5613 5616 5619 5623 5624 5624 5625 5626 5627 5628 5630 5633 5635 5635 5635 5635 5636 5637 5637 5638 5639 5641
5609 5613 5605 5600 5604 5602 5603 5608 5606 5602 5602 5597 5591 5589 5588 5587 5588 5593 5599 5603 5605 5606 5608 5610 5614 5616 5615 5613 5614 5614 5614 5615 5617 5619 5620 5620 5621 5621 5622 5623 5624 5625 5626 5626
5605 5599 5586 5600 5607 5603 5599 5600 5602 5598 5592 5589 5587 5584 5584 5585 5588 5591 5594 5596 5598 5600 5601 5603 5606 5608 5607 5605 5604 5603 5602 5601 5601 5600 5599 5599 5601 5602 5605 5608 5609 5610 5611 5611
5602 5593 5596 5602 5601 5601 5597 5599 5604 5599 5593 5588 5587 5586 5589 5589 5589 5588 5587 5588 5590 5593 5595 5595 5598 5600 5599 5597 5595 5593 5591 5589 5588 5587 5585 5583 5584 5585 5587 5591 5593 5595 5596 5597
5605 5589 5584 5599 5602 5601 5595 5595 5604 5600 5595 5591 5589 5588 5594 5591 5587 5585 5584 5585 5586 5587 5587 5588 5589 5590 5590 5588 5586 5583 5580 5578 5577 5576 5575 5573 5572 5573 5574 5576 5578 5581 5583 5584
5606 5597 5603 5602 5600 5595 5583 5591 5599 5600 5596 5592 5590 5592 5591 5588 5585 5583 5581 5581 5581 5581 5580 5579 5579 5578 5578 5576 5572 5569 5567 5566 5565 5566 5567 5567 5566 5566 5566 5568 5568 5568 5571 5573
5609 5600 5598 5603 5599 5592 5595 5597 5598 5598 5596 5592 5590 5586 5584 5582 5580 5578 5577 5577 5577 5575 5572 5570 5569 5567 5565 5561 5558 5556 5555 5554 5555 5556 5560 5563 5564 5563 5562 5561 5560 5559 5561 5563
5618 5615 5615 5613 5607 5605 5601 5598 5598 5597 5595 5591 5587 5584 5582 5579 5576 5574 5572 5572 5571 5569 5566 5562 5561 5559 5558 5553 5550 5548 5546 5545 5546 5548 5551 5553 5555 5556 5556 5554 5552 5552 5554 5554
5621 5625 5624 5618 5614 5609 5604 5601 5600 5598 5595 5591 5587 5584 5580 5577 5573 5570 5568 5567 5565 5563 5560 5556 5554 5552 5551 5548 5546 5543 5541 5540 5539 5539 5540 5541 5542 5543 5544 5544 5542 5540 5540 5541
5625 5628 5628 5624 5620 5616 5610 5607 5603 5600 5596 5593 5590 5586 5581 5576 5572 5569 5565 5562 5560 5557 5554 5551 5549 5547 5546 5546 5545 5543 5541 5539 5537 5536 5534 5533 5532 5531 5531 5529 5527 5526 5525 5524
5631 5638 5633 5631 5630 5624 5616 5610 5607 5602 5598 5595 5592 5588 5583 5579 5574 5569 5565 5560 5557 5554 5552 5549 5546 5545 5543 5542 5542 5541 5542 5541 5538 5536 5534 5532 5529 5526 5521 5520 5518 5517 5515 5515
5643 5645 5644 5641 5636 5629 5622 5617 5612 5606 5601 5597 5593 5590 5585 5580 5575 5571 5566 5561 5558 5554 5552 5549 5546 5544 5542 5540 5538 5538 5538 5538 5538 5536 5534 5532 5528 5525 5521 5514 5508 5508 5507 5505
5647 5644 5640 5639 5636 5632 5627 5622 5617 5611 5606 5602 5597 5591 5586 5581 5576 5572 5568 5564 5559 5555 5551 5548 5546 5544 5542 5539 5536 5535 5535 5532 5533 5533 5532 5531 5528 5527 5525 5521 5515 5509 5500 5497
5651 5647 5641 5643 5641 5635 5628 5623 5617 5611 5607 5603 5599 5593 5588 5582 5577 5573 5569 5566 5560 5555 5551 5548 5545 5543 5541 5538 5534 5532 5533 5532 5529 5528 5526 5524 5522 5520 5518 5514 5511 5509 5506 5495
5649 5647 5641 5638 5636 5633 5627 5622 5617 5613 5608 5603 5599 5594 5589 5585 5580 5575 5571 5566 5560 5556 5552 5548 5545 5543 5540 5537 5532 5528 5526 5520 5519 5522 5521 5518 5515 5513 5510 5505 5503 5500 5497 5493
5642 5638 5635 5632 5631 5630 5628 5624 5620 5615 5610 5605 5600 5596 5591 5585 5580 5575 5571 5567 5562 5558 5554 5550 5546 5544 5541 5536 5531 5530 5527 5519 5510 5513 5515 5512 5509 5505 5502 5499 5496 5493 5489 5481
5642 5640 5639 5635 5631 5628 5626 5624 5620 5616 5611 5607 5602 5597 5591 5585 5580 5576 5573 5568 5563 5558 5555 5551 5548 5543 5539 5535 5530 5529 5525 5521 5515 5514 5512 5507 5504 5500 5497 5493 5490 5486 5481 5475
5638 5638 5638 5637 5634 5629 5624 5621 5619 5615 5611 5607 5602 5597 5592 5587 5582 5578 5574 5569 5563 5558 5556 5553 5547 5542 5538 5534 5529 5524 5523 5520 5516 5512 5508 5501 5496 5496 5493 5489 5485 5480 5474 5467
5634 5635 5635 5635 5635 5630 5624 5619 5615 5611 5609 5605 5601 5596 5591 5587 5582 5577 5574 5570 5568 5565 5561 5556 5549 5542 5539 5535 5527 5526 5523 5520 5516 5512 5507 5503 5499 5494 5489 5485 5479 5473 5465 5458
5625 5627 5629 5629 5630 5629 5624 5619 5613 5607 5604 5602 5598 5594 5591 5587 5583 5579 5574 5572 5570 5565 5561 5556 5551 5547 5541 5537 5525 5526 5524 5521 5517 5512 5507 5502 5496 5490 5483 5477 5471 5465 5458 5450
5614 5616 5618 5620 5621 5621 5619 5615 5611 5606 5601 5598 5596 5593 5590 5586 5583 5580 5577 5575 5575 5567 5561 5559 5555 5549 5544 5535 5531 5527 5524 5522 5518 5514 5507 5500 5491 5483 5475 5469 5465 5459 5452 5445
5601 5602 5604 5606 5608 5609 5609 5608 5606 5601 5598 5597 5595 5592 5589 5588 5588 5583 5579 5577 5572 5566 5562 5561 5557 5548 5539 5533 5533 5531 5527 5524 5519 5513 5504 5495 5485 5478 5472 5468 5463 5456 5448 5440
5587 5590 5592 5594 5596 5596 5597 5600 5599 5596 5594 5593 5594 5592 5589 5587 5586 5586 5585 5580 5574 5567 5564 5561 5553 5545 5535 5537 5534 5532 5528 5523 5516 5508 5498 5489 5483 5478 5474 5468 5461 5454 5445 5436
5578 5578 5581 5583 5585 5589 5590 5590 5591 5589 5587 5588 5589 5589 5588 5587 5586 5587 5584 5581 5574 5566 5564 5559 5549 5541 5538 5538 5536 5532 5527 5520 5513 5503 5494 5487 5483 5479 5474 5467 5460 5451 5442 5433
5573 5574 5577 5577 5578 5579 5582 5584 5586 5587 5587 5587 5587 5587 5587 5586 5584 5583 5581 5578 5574 5565 5563 5562 5553 5541 5541 5540 5536 5530 5523 5514 5506 5498 5493 5486 5482 5478 5472 5465 5456 5447 5439 5430
5569 5570 5571 5571 5573 5573 5572 5573 5575 5578 5580 5580 5581 5582 5582 5581 5579 5578 5578 5576 5573 5567 5564 5562 5558 5550 5545 5541 5534 5526 5519 5511 5503 5496 5490 5485 5479 5474 5468 5459 5451 5443 5434 5426